Home > Time Zones > World Clock > Weather > Spain > Cadiz > Past weeks

Flag Weather past 2 weeks in Cadiz, Cádiz, Spain

Now
55 °F

Sleet. Overcast.


Feels Like: 55 °F
Forecast: 60 / 63 °F
Wind: No wind

Location: Rota Airport

Current Time: Nov 26, 2014 at 6:46:30 AM

Latest Report: Nov 26, 2014 at 6:00 AM


Visibility: 0 mi

Pressure: 29.98 "Hg

Humidity: 100%

Dew point: 55 °F

Location of CadizLocation

Historic Weather in Cadiz — Graph

°F

Cadiz temperature yesterday

Maximum temperature yesterday: 64 °F (at 10:00 AM)
Minimum temperature yesterday: 54 °F (at 8:00 AM)
Average temperature yesterday: 59 °F

Past Weeks' High & Low Weather Summary

 TemperatureHumidityPressure
High75 °F (Nov 22, 3:00 PM)100% (Nov 11, 6:00 AM)30.12 "Hg (Nov 11, 6:00 AM)
Low45 °F (Nov 18, 7:00 AM)41% (Nov 22, 4:00 PM)29.65 "Hg (Nov 22, 4:00 PM)
Average63 °F82%29.91 "Hg
* Reported Nov 11 5:00 AM — Nov 26 5:00 AM, Cadiz, Weather by CustomWeather, © 2014

Note: Actual official high and low records may vary slightly from our data, if they occured in-between our weather recording intervals... More about our weather records

Advertising

Cadiz weather history for previous 24 hours

 ConditionsComfort  
Time TempWeatherWind HumidityBarometerVisibility
5:00 AM
Nov 26
57 °FSleet. Overcast.1 mph100%30.01 "Hg1 mi
4:00 AM55 °FPassing clouds.No wind100%30.01 "HgN/A
3:00 AM57 °FPassing clouds.No wind100%30.01 "HgN/A
2:00 AM59 °FPassing clouds.2 mph94%30.04 "HgN/A
1:00 AM61 °FPassing clouds.2 mph94%30.04 "HgN/A
12:00 AM59 °FPassing clouds.1 mph94%30.07 "HgN/A
11:00 PM
Nov 25
57 °FPassing clouds.No wind94%30.07 "HgN/A
10:00 PM59 °FPassing clouds.No wind94%30.07 "HgN/A
9:00 PM61 °FPassing clouds.3 mph88%30.07 "HgN/A
8:00 PM61 °FPassing clouds.2 mph88%30.07 "HgN/A
7:00 PM61 °FPassing clouds.1 mph88%30.07 "HgN/A
6:00 PM63 °FScattered clouds.3 mph88%30.07 "HgN/A
5:00 PM63 °FPassing clouds.3 mph88%30.07 "HgN/A
4:00 PM64 °FScattered clouds.7 mph78%30.07 "HgN/A
3:00 PM64 °FScattered clouds.5 mph83%30.09 "HgN/A
2:00 PM63 °FScattered clouds.6 mph88%30.09 "HgN/A
1:00 PM64 °FPassing clouds.2 mph88%30.12 "HgN/A
12:00 PM61 °FFog.5 mph94%30.12 "Hg2 mi
11:00 AM63 °FBroken clouds.6 mph88%30.12 "Hg6 mi
10:00 AM64 °FPassing clouds.No wind88%30.09 "HgN/A
9:00 AM55 °FPassing clouds.1 mph100%30.09 "HgN/A
8:00 AM54 °FFog.No wind100%30.09 "Hg2 mi
7:00 AM55 °FClear.1 mph94%30.07 "Hg4 mi
6:00 AM55 °FFog.No wind94%30.07 "Hg3 mi
Weather by CustomWeather, © 2014

See weather overviewHow to use our weather pages